Location: Bouchavesnes-Bergen
(49.9859°N, 2.9203°E)
Time: 03:37:33
(UTC+00:00)

CZ-4C R/B - Visible Passes

Search period start: 14 June 2021 00:00
Search period end: 24 June 2021 00:00
Orbit: 609 x 1392 km, 63.4° (Epoch: 13 June)

Date Brightness Start Highest point End Pass type
(mag) Time Alt. Az. Time Alt. Az. Time Alt. Az.
16 Jun 4.5 02:36:49 10° ESE 02:38:24 11° ESE 02:40:02 10° E visible
19 Jun 3.9 02:25:51 10° SSE 02:29:34 22° ESE 02:33:47 10° ENE visible
21 Jun 4.0 01:44:58 10° SSE 01:48:12 18° ESE 01:51:48 10° ENE visible
22 Jun 3.0 02:16:25 10° S 02:20:56 38° ESE 02:26:18 10° NE visible
23 Jun 4.1 01:04:18 10° SE 01:06:51 14° ESE 01:09:36 10° ENE visible
23 Jun 2.2 02:49:05 10° SW 02:54:03 80° SE 03:00:09 10° NE visible
